Regional Weather Roundup
Issued by NWS

Home | Current Version | Previous Version | Graphics & Text | Print | Product List | Glossary On
Versions: 1 2 3 4 5 6 7 8 9 10 11 12 13 14 15 16 17 18 19 20 21 22 23 24 25 26 27 28 29 30 31 32 33 34 35 36 37 38 39 40 41 42 43 44 45 46 47 48 49 50
000
ASUS43 KDTX 070301
RWRMI
MICHIGAN HOURLY REGIONAL WEATHER ROUNDUP
NATIONAL WEATHER SERVICE DETROIT/PONTIAC MI
1000 PM EST FRI MAR 06 2015

NOTE: "FAIR" INDICATES FEW OR NO CLOUDS BELOW 12,000 FEET WITH NO
SIGNIFICANT WEATHER AND/OR OBSTRUCTION TO VISIBILITY.

MIZ047>049-052>055-059>063-066>070-074>076-081>083-070400-
SOUTHEAST LOWER MICHIGAN

CITY           SKY/WX    TMP DP  RH WIND       PRES   REMARKS
ADRIAN         CLEAR     18   9  68 SW13      30.22F WCI   5
ALMA           CLOUDY    22   9  57 SW9G17    30.13R WCI  11
ANN ARBOR      CLEAR     18   9  68 SW9       30.19F WCI   7
BAD AXE        CLOUDY    21   8  57 SW10G17   30.11R WCI  10
CARO           CLOUDY    22   9  58 SW15      30.12S WCI   8
DETROIT CITY   PTCLDY    24  10  55 SW14      30.20F WCI  12
DETROIT        MOCLDY    22  10  60 S18       30.22F WCI   7
FLINT          CLOUDY    23   9  55 SW14G24   30.15S WCI  11
GROSSE ILE     PTCLDY    21  12  68 S10       30.21F WCI  10
HILLSDALE      PTCLDY    19   9  65 SW8       30.17S WCI   9
HOWELL         CLOUDY    20   9  62 SW12G17   30.15R WCI   8

CITY           SKY/WX    TMP DP  RH WIND       PRES   REMARKS
JACKSON        PTCLDY    20   9  62 SW14G23   30.16F WCI   7
LAMBERTVILLE   CLEAR     23  12  63 S9        30.24S WCI  13
LANSING        MOCLDY    21   8  57 SW15      30.15S WCI   8
LAPEER         CLOUDY    22   9  58 SW17      30.14S WCI   7
MASON          PTCLDY    20   9  62 SW6       30.15S WCI  13
MT. CLEMENS    CLOUDY    23  10  58 SW18G25   30.16F WCI   8
PONTIAC        CLOUDY    20  10  65 SW12G20   30.15F WCI   8
PORT HOPE        N/A     22   5  48 SW9G21    30.08S WCI  12
PORT HURON     CLOUDY    21  12  68 SW10      30.18R WCI  10
TRI CITIES     CLOUDY    23   9  55 SW20      30.12S WCI   8
TROY           CLOUDY    24  10  53 SW12G20   30.20F WCI  13
SAGINAW HB     PTCLDY    23  10  58 SW15      30.12S WCI  10
$$
MIZ043>046-050>051-056>058-064>065-071>073-077>080-070400-
SOUTHWEST LOWER MICHIGAN

CITY           SKY/WX    TMP DP  RH WIND       PRES   REMARKS
BATTLE CREEK   MOCLDY    21   9  59 SW15      30.16F WCI   8
BENTON HARBOR  CLEAR     21  12  68 SW10      30.18S WCI  10
BIG RAPIDS     CLOUDY    24  17  75 SW7G18    30.07S WCI  15
COLDWATER      MOCLDY    20  10  65 SW13      30.18S WCI   7
FREMONT        CLOUDY    25  18  75 SW10      30.10F WCI  15
HOLLAND        PTCLDY    24  15  68 SW20      30.16S WCI  10
GRAND RAPIDS   MOCLDY    21   9  59 SW12      30.15S WCI   9
IONIA          CLOUDY    23  11  61 SW17      30.12F WCI   9
KALAMAZOO      PTCLDY    21  10  62 SW14      30.17S WCI   8
LUDINGTON      MOCLDY    31  22  69 W14G23    30.08S WCI  20
MARSHALL       MOCLDY    19   9  63 SW7       30.16S WCI  10
MOUNT PLEASANT CLOUDY    23   9  55 SW10G18   30.09F WCI  12
MUSKEGON       CLOUDY    28  21  75 SW14      30.13S WCI  17
SOUTH HAVEN    CLEAR     24  13  63 SW9       30.17S WCI  14
$$
MIZ016>042-070400-
NORTHERN LOWER MICHIGAN

CITY           SKY/WX    TMP DP  RH WIND       PRES   REMARKS
ALPENA         CLOUDY    24   9  52 SW15G22   30.03R WCI  11
BEAVER ISLAND  CLEAR     25  19  79 SW12G17   29.98R WCI  14
BELLAIRE       CLOUDY    24  17  73 S5        30.04S WCI  19
CADILLAC       CLOUDY    20  15  81 SW12      30.01S WCI   8
CHARLEVOIX     PTCLDY    23  17  78 CALM      30.03S
FRANKFORT      CLEAR     28  21  74 SW9G17    30.05S WCI  19
GAYLORD        CLOUDY    21  15  78 SW16      29.98F WCI   7
GRAYLING       CLOUDY    21  13  71 SW10      30.02F WCI  10
HARBOR SPRINGS CLOUDY    23  17  77 SW7       30.00S WCI  15
HOUGHTON LAKE  CLOUDY    21  13  71 SW12      30.04S WCI   9
MANISTEE       MOCLDY    28  16  59 SW13G20   30.07S WCI  18
OSCODA         CLOUDY    22   9  56 SW18G24   30.05R WCI   7
PELLSTON       CLOUDY    24  16  71 SW10G21   29.99F WCI  14
ROGERS CITY    CLOUDY    26  16  65 SW16G22   30.01S WCI  14
TRAVERSE CITY  CLEAR     25  17  72 SW8       30.02F WCI  16
$$
MIZ007>008-015-070400-
EASTERN UPPER MICHIGAN

CITY           SKY/WX    TMP DP  RH WIND       PRES   REMARKS
KINROSS        PTCLDY    23  21  93 SW5       29.95S WCI  17
MACKINAC ISLAN CLOUDY    25  19  77 SW10G18   29.97S WCI  15
NEWBERRY       PTCLDY    17  11  75 SW7       29.94F WCI   8
S. S. MARIE    CLOUDY    23  16  74 W7        29.94F WCI  15
MUNISING         N/A     15   7  70 S7        29.95F WCI   5
$$
MIZ004>006-011>014-085-070400-
CENTRAL UPPER MICHIGAN

CITY           SKY/WX    TMP DP  RH WIND       PRES   REMARKS
MANISTIQUE     CLEAR     17  12  82 NW5       29.97S WCI   9
ESCANABA       CLEAR     18  10  73 W6        29.99S WCI   9
MENOMINEE      CLEAR     25  12  58 W3        30.01S
SAWYER-GWINN   CLEAR     21   9  58 SW5       29.92F WCI  15
$$
MIZ001>003-009>011-084-070400-
WESTERN UPPER MICHIGAN

CITY           SKY/WX    TMP DP  RH WIND       PRES   REMARKS
IRON MOUNTAIN  CLEAR     21   8  57 SW3       29.94S
HOUGHTON       CLEAR     24  14  65 W17       29.89F WCI  11
COPPER HARBOR    N/A     28  12  51 NW9G20    29.89F WCI  19
IRONWOOD       CLEAR     21  10  63 SW6       29.93S WCI  14
$$

ABBREVIATIONS USED IN REMARKS
   TC - TEMPERATURE IN CELSIUS
  WCI - WIND CHILL INDEX
   HX - HEAT INDEX
  VSB - VISIBILITY



USA.gov is the U.S. government's official web portal to all federal, state and local government web resources and services.